IZ1UQG-2 Weather Reports


Display with metric or nautical units.
time (UTC)temp
F
wind
direction
speed
MPH
gust
MPH
rain 1hr
in
rain 24hr
in
rain mn
in
humidity
%
barometer
mb
20260905132004 89 80 3.0 5.0 1.00 7.06 7.06 45 1014.1
20260905131204 88 95 2.0 5.0 1.01 7.06 7.06 45 1014.3
20260905130804 88 81 3.0 5.0 2.01 7.06 7.06 45 1014.3
20260905130005 88 84 3.0 6.0 3.02 7.06 7.06 45 1014.3
20260905125604 88 94 2.0 6.0 3.02 7.06 7.06 46 1014.4
20260905125204 88 98 2.0 5.0 3.02 7.06 7.06 46 1014.3
20260905124804 88 63 2.0 5.0 3.02 7.06 7.06 46 1014.4
20260905123604 87 57 1.0 5.0 3.02 7.06 7.06 48 1014.4
20260905122804 88 45 0.0 1.0 2.02 6.06 6.06 51 1014.5
20260905122404 88 342 1.0 4.0 2.02 6.06 6.06 49 1014.5
20260905122005 88 341 2.0 6.0 2.02 6.06 6.06 53 1014.5
20260905121604 85 342 2.0 6.0 2.02 6.05 6.05 52 1014.7
20260905120804 87 5 1.0 3.0 1.02 5.05 5.05 51 1014.7
20260905120404 87 16 1.0 4.0 2.02 5.05 5.05 50 1014.7
20260905120005 86 32 1.0 5.0 1.02 4.04 4.04 53 1014.8
20260905115604 86 48 2.0 5.0 1.01 4.03 4.03 49 1014.9
20260905115204 85 55 3.0 5.0 1.01 4.03 4.03 49 1014.9
20260905114805 85 60 3.0 6.0 1.01 4.03 4.03 49 1015.1
20260905114404 85 64 3.0 6.0 1.01 4.03 4.03 49 1015.0
20260905113604 85 36 1.0 5.0 1.01 4.03 4.03 50 1015.1
20260905113204 85 59 1.0 5.0 1.01 4.03 4.03 50 1015.0
20260905112404 86 112 2.0 6.0 1.01 4.03 4.03 49 1015.0
20260905112005 85 98 2.0 5.0 1.01 4.03 4.03 50 1015.0
20260905111604 85 91 2.0 5.0 1.01 4.03 4.03 50 1015.1
20260905111204 85 80 2.0 5.0 1.01 4.03 4.03 52 1015.2
20260905110804 84 106 2.0 8.0 1.01 4.03 4.03 52 1015.2
20260905110404 85 134 2.0 8.0 0.01 3.03 3.03 56 1015.2
20260905110004 85 114 2.0 7.0 0.00 3.02 3.02 52 1015.1
20260905105604 84 70 2.0 4.0 0.00 3.02 3.02 52 1015.2
20260905105204 84 62 2.0 6.0 0.00 3.02 3.02 52 1015.2
20260905104805 83 55 2.0 6.0 0.00 3.02 3.02 53 1015.3
20260905104404 83 60 1.0 5.0 0.00 3.02 3.02 53 1015.2
20260905104005 84 152 1.0 3.0 0.00 3.02 3.02 52 1015.3
20260905103604 83 134 1.0 4.0 0.00 3.02 3.02 52 1015.2
20260905103204 83 129 2.0 4.0 0.00 3.02 3.02 52 1015.2
20260905102804 83 88 1.0 4.0 0.00 3.02 3.02 53 1015.3
20260905102404 83 90 1.0 4.0 0.00 3.02 3.02 53 1015.2
20260905102004 83 83 1.0 4.0 0.00 3.02 3.02 53 1015.3
20260905100804 81 70 2.0 5.0 1.00 3.02 3.02 56 1015.3
20260905100404 81 91 2.0 5.0 1.00 3.02 3.02 58 1015.3
20260905100004 81 92 3.0 7.0 1.00 3.02 3.02 59 1015.3
20260905095604 81 90 3.0 7.0 1.00 3.02 3.02 59 1015.3
20260905094404 81 129 2.0 6.0 1.00 3.02 3.02 55 1015.5
20260905094005 81 152 1.0 4.0 1.00 3.02 3.02 55 1015.6
20260905093604 81 110 2.0 4.0 1.00 3.02 3.02 57 1015.6
20260905093204 81 15 1.0 3.0 1.00 3.02 3.02 58 1015.6
20260905092805 80 15 2.0 4.0 1.00 3.02 3.02 58 1015.5
20260905091604 80 0 0.0 0.0 1.02 2.02 2.02 62 1015.3
20260905091204 80 323 0.0 3.0 1.02 2.02 2.02 60 1015.3
20260905090804 80 336 0.0 3.0 2.02 2.02 2.02 64 1015.3
20260905090404 80 355 0.0 3.0 2.02 2.02 2.02 62 1015.4
20260905090006 79 6 0.0 3.0 2.02 2.02 2.02 62 1015.5
20260905085204 79 3 1.0 4.0 2.02 2.02 2.02 63 1015.4
20260905084804 79 3 1.0 3.0 2.02 2.02 2.02 62 1015.4
20260905083604 78 351 1.0 5.0 2.02 2.02 2.02 63 1015.5
20260905083204 78 351 1.0 5.0 2.02 2.02 2.02 64 1015.5
20260905082405 78 337 0.0 2.0 1.02 1.02 1.02 65 1015.5
20260905082005 77 339 0.0 2.0 1.02 1.02 1.02 64 1015.6
20260905081604 75 339 0.0 2.0 1.01 1.01 1.01 65 1015.7
20260905081204 75 342 0.0 1.0 1.01 1.01 1.01 66 1015.7
20260905080005 75 343 0.0 2.0 0.01 0.01 0.01 70 1015.6
20260905075604 75 342 1.0 2.0 0.01 0.01 0.01 69 1015.7
20260905075204 72 339 2.0 3.0 0.00 0.00 0.00 71 1015.8
20260905074804 72 343 2.0 4.0 0.00 0.00 0.00 70 1015.8
20260905074404 72 344 3.0 6.0 0.00 0.00 0.00 70 1015.7
20260905074004 72 347 3.0 6.0 0.00 0.00 0.00 70 1015.7
20260905073604 72 351 3.0 6.0 0.00 0.00 0.00 70 1015.6
20260905073205 72 348 3.0 5.0 0.00 0.00 0.00 70 1015.6
20260905072804 72 332 3.0 6.0 0.00 0.00 0.00 70 1015.6
20260905072404 71 322 3.0 6.0 0.00 0.00 0.00 72 1015.6
20260905072005 71 315 3.0 6.0 0.00 0.00 0.00 71 1015.5
20260905071604 71 313 2.0 4.0 0.00 0.00 0.00 71 1015.6
20260905071203 72 310 2.0 5.0 0.00 0.00 0.00 71 1015.6
20260905070804 72 310 2.0 5.0 0.00 0.00 0.00 71 1015.6
20260905070004 71 297 2.0 5.0 0.00 0.00 0.00 72 1015.6
20260905065605 71 297 2.0 4.0 0.00 0.00 0.00 72 1015.6
20260905065204 71 313 2.0 4.0 0.00 0.00 0.00 74 1015.5
20260905064404 71 308 1.0 3.0 0.00 0.00 0.00 73 1015.5
20260905064005 71 316 2.0 4.0 0.00 0.00 0.00 73 1015.6
20260905063604 71 326 2.0 4.0 0.00 0.00 0.00 73 1015.5
20260905063204 71 343 2.0 3.0 0.00 0.00 0.00 72 1015.5
20260905062804 71 342 1.0 3.0 0.00 0.00 0.00 72 1015.4
20260905062404 71 328 2.0 4.0 0.00 0.00 0.00 74 1015.4
20260905061604 70 321 2.0 5.0 0.00 0.00 0.00 73 1015.5
20260905061204 71 309 2.0 5.0 0.00 0.00 0.00 73 1015.5
20260905060804 71 305 2.0 4.0 0.00 0.00 0.00 72 1015.4
20260905060404 71 312 2.0 4.0 0.00 0.00 0.00 73 1015.5
20260905060005 70 321 2.0 4.0 0.00 0.00 0.00 74 1015.5
20260905055605 70 330 2.0 4.0 0.00 0.00 0.00 73 1015.4
20260905055204 70 332 2.0 4.0 0.00 0.00 0.00 73 1015.3
20260905054804 71 327 1.0 4.0 0.00 0.00 0.00 73 1015.4
20260905054404 71 313 1.0 3.0 0.00 0.00 0.00 73 1015.3
20260905054005 71 312 0.0 3.0 0.00 0.00 0.00 73 1015.3
20260905053204 70 326 2.0 5.0 0.00 0.00 0.00 73 1015.3
20260905052804 70 333 3.0 5.0 0.00 0.00 0.00 74 1015.4
20260905052404 70 331 2.0 5.0 0.00 0.00 0.00 73 1015.3
20260905052005 70 332 1.0 5.0 0.00 0.00 0.00 73 1015.2
20260905051204 71 312 0.0 2.0 0.00 0.00 0.00 74 1015.2
20260905050804 71 331 0.0 2.0 0.00 0.00 0.00 73 1015.2
20260905050404 71 269 0.0 2.0 0.00 0.00 0.00 73 1015.1
20260905045604 70 259 0.0 3.0 0.00 0.00 0.00 74 1015.0
20260905045203 70 271 1.0 3.0 0.00 0.00 0.00 74 1015.0
20260905044804 70 267 1.0 3.0 0.00 0.00 0.00 74 1015.0
20260905044404 70 260 1.0 3.0 0.00 0.00 0.00 74 1015.0
20260905044004 70 271 1.0 3.0 0.00 0.00 0.00 75 1015.0
20260905043605 70 316 1.0 3.0 0.00 0.00 0.00 74 1014.9
20260905042804 70 319 2.0 4.0 0.00 0.00 0.00 74 1015.0
20260905042404 70 331 2.0 4.0 0.00 0.00 0.00 74 1014.9
20260905042004 70 335 2.0 4.0 0.00 0.00 0.00 74 1014.8
20260905041604 70 323 2.0 5.0 0.00 0.00 0.00 75 1014.9
20260905041204 69 324 3.0 5.0 0.00 0.00 0.00 75 1014.9
20260905040804 70 329 3.0 4.0 0.00 0.00 0.00 75 1014.8
20260905040005 70 334 3.0 6.0 0.00 0.00 0.00 74 1014.6
20260905035604 70 328 2.0 6.0 0.00 0.00 0.00 74 1014.7
20260905035204 70 320 2.0 4.0 0.00 0.00 0.00 73 1014.8
20260905034803 71 319 2.0 4.0 0.00 0.00 0.00 73 1014.8
20260905034404 71 304 2.0 4.0 0.00 0.00 0.00 73 1014.8
20260905034004 70 263 2.0 4.0 0.00 0.00 0.00 74 1015.0
20260905033604 70 264 2.0 4.0 0.00 0.00 0.00 74 1015.0
20260905033204 71 278 2.0 4.0 0.00 0.00 0.00 74 1014.9
20260905032404 71 292 2.0 4.0 0.00 0.00 0.00 73 1014.9
20260905032004 71 298 1.0 3.0 0.00 0.00 0.00 72 1014.8
20260905031604 71 281 1.0 3.0 0.00 0.00 0.00 73 1014.9
20260905031204 71 299 2.0 6.0 0.00 0.00 0.00 74 1014.9
20260905030804 71 311 3.0 6.0 0.00 0.00 0.00 73 1014.9
20260905030404 71 323 3.0 6.0 0.00 0.00 0.00 73 1015.1
20260905030004 71 304 2.0 4.0 0.00 0.00 0.00 72 1015.1
20260905025604 71 272 2.0 4.0 0.00 0.00 0.00 72 1015.2
20260905025204 71 270 2.0 4.0 0.00 0.00 0.00 73 1015.1
20260905024404 71 308 1.0 3.0 0.00 0.00 0.00 73 1015.2
20260905024004 71 313 2.0 4.0 0.00 0.00 0.00 72 1015.2
20260905023204 71 344 3.0 6.0 0.00 0.00 0.00 72 1015.1
20260905022804 71 348 4.0 6.0 0.00 0.00 0.00 72 1015.1
20260905022404 72 339 3.0 6.0 0.00 0.00 0.00 71 1015.0
20260905022004 71 323 2.0 5.0 0.00 0.00 0.00 72 1015.0
20260905021605 71 272 2.0 4.0 0.00 0.00 0.00 72 1015.0
20260905021205 71 251 2.0 3.0 0.00 0.00 0.00 72 1014.9
20260905020804 72 287 2.0 5.0 0.00 0.00 0.00 71 1015.0
20260905020404 72 303 2.0 5.0 0.00 0.00 0.00 71 1014.9
20260905015204 71 223 1.0 3.0 0.00 0.00 0.00 72 1015.0
20260905014804 71 291 2.0 5.0 0.00 0.00 0.00 73 1015.2
20260905014404 72 324 3.0 5.0 0.00 0.00 0.00 72 1015.1
20260905014004 72 341 2.0 5.0 0.00 0.00 0.00 71 1015.2
20260905013604 72 329 1.0 4.0 0.00 0.00 0.00 70 1015.1
20260905013204 72 310 1.0 3.0 0.00 0.00 0.00 70 1015.3
20260905012804 72 327 2.0 4.0 0.00 0.00 0.00 71 1015.3
20260905012404 72 328 2.0 4.0 0.00 0.00 0.00 71 1015.4
20260905012005 72 316 2.0 5.0 0.00 0.00 0.00 70 1015.4
20260905011604 72 306 2.0 5.0 0.00 0.00 0.00 71 1015.4
20260905011204 72 320 2.0 5.0 0.00 0.00 0.00 71 1015.3
20260905010804 72 333 2.0 4.0 0.00 0.00 0.00 71 1015.3
20260905010404 72 338 2.0 4.0 0.00 0.00 0.00 70 1015.3
20260905010004 73 339 2.0 4.0 0.00 0.00 0.00 70 1015.4
20260905005604 73 344 1.0 4.0 0.00 0.00 0.00 69 1015.3
20260905005203 73 350 1.0 3.0 0.00 0.00 0.00 69 1015.2
20260905004804 73 14 1.0 2.0 0.00 0.00 0.00 69 1015.3
20260905004404 73 6 1.0 2.0 0.00 0.00 0.00 69 1015.3
20260905004005 74 357 0.0 2.0 0.00 0.00 0.00 69 1015.3
20260905003604 74 357 0.0 1.0 0.00 0.00 0.00 69 1015.2
20260905003205 73 354 0.0 3.0 0.00 0.00 0.00 69 1015.2
20260905002803 73 357 1.0 5.0 0.00 0.00 0.00 69 1015.3
20260905002005 74 355 1.0 6.0 0.00 0.00 0.00 68 1015.3
20260905001604 74 270 0.0 5.0 0.00 0.00 0.00 68 1015.3
20260905000005 74 211 1.0 3.0 0.00 0.00 0.00 68 1015.2
20260904235603 74 220 1.0 3.0 0.00 0.00 0.00 68 1015.4
20260904234803 74 312 1.0 3.0 0.00 0.00 0.00 69 1015.5
20260904232804 74 300 0.0 2.0 0.00 0.00 0.00 69 1015.6
20260904232403 74 303 0.0 2.0 0.00 0.00 0.00 68 1015.6
20260904231605 74 329 2.0 5.0 0.00 0.00 0.00 69 1015.7
20260904231204 74 334 3.0 5.0 0.00 0.00 0.00 69 1015.7
20260904230804 74 335 3.0 5.0 0.00 0.00 0.00 69 1015.8
20260904230403 73 326 3.0 5.0 0.00 0.00 0.00 70 1015.7
20260904230004 73 320 3.0 5.0 0.00 0.00 0.00 70 1015.8
20260904225204 74 322 2.0 4.0 0.00 0.00 0.00 69 1015.7
20260904224804 75 319 1.0 4.0 0.00 0.00 0.00 68 1015.6
20260904224404 75 263 1.0 4.0 0.00 0.00 0.00 68 1015.6
20260904223605 75 243 1.0 2.0 0.00 0.00 0.00 68 1015.6
20260904223204 75 236 0.0 2.0 0.00 0.00 0.00 68 1015.5
20260904222804 75 239 0.0 2.0 0.00 0.00 0.00 68 1015.6
20260904222404 75 224 1.0 2.0 0.00 0.00 0.00 68 1015.6
20260904222004 75 210 0.0 2.0 0.00 0.00 0.00 68 1015.7
20260904221604 75 248 1.0 2.0 0.00 0.00 0.00 68 1015.7
20260904221204 75 332 1.0 2.0 0.00 0.00 0.00 68 1015.8
20260904220804 75 343 1.0 3.0 0.00 0.00 0.00 67 1015.8
20260904220403 76 349 1.0 3.0 0.00 0.00 0.00 67 1015.8
20260904220006 75 5 1.0 2.0 0.00 0.00 0.00 67 1015.8
20260904215603 75 322 0.0 2.0 0.00 0.00 0.00 69 1015.8
20260904215204 75 297 1.0 3.0 0.00 0.00 0.00 69 1015.7
20260904214804 75 265 1.0 4.0 0.00 0.00 0.00 68 1015.8
20260904214404 75 240 2.0 4.0 0.00 0.00 0.00 69 1015.7
20260904214004 74 231 2.0 4.0 0.00 0.00 0.00 70 1015.7
20260904213604 74 238 1.0 4.0 0.00 0.00 0.00 70 1015.7
20260904213204 75 235 1.0 4.0 0.00 0.00 0.00 69 1015.7
20260904212803 75 234 1.0 4.0 0.00 0.00 0.00 69 1015.8
20260904212005 75 210 2.0 5.0 0.00 0.00 0.00 68 1015.8
20260904211203 75 216 2.0 5.0 0.00 0.00 0.00 68 1015.8
20260904210804 76 216 2.0 4.0 0.00 0.00 0.00 68 1015.8
20260904210404 76 214 2.0 5.0 0.00 0.00 0.00 67 1015.6
20260904205204 76 220 3.0 6.0 0.00 0.00 0.00 68 1015.8
20260904204803 75 224 3.0 6.0 0.00 0.00 0.00 67 1015.8
20260904204405 76 221 3.0 6.0 0.00 0.00 0.00 67 1015.8
20260904204004 76 216 3.0 5.0 0.00 0.00 0.00 66 1016.0
20260904203604 76 214 3.0 6.0 0.00 0.00 0.00 66 1015.8
20260904203204 76 217 3.0 6.0 0.00 0.00 0.00 66 1016.0
20260904202805 76 218 2.0 6.0 0.00 0.00 0.00 65 1015.9
20260904202405 77 209 1.0 3.0 0.00 0.00 0.00 64 1015.8
20260904202004 77 206 1.0 3.0 0.00 0.00 0.00 64 1015.9
20260904201604 77 217 1.0 3.0 0.00 0.00 0.00 64 1015.8
20260904201204 78 244 1.0 4.0 0.00 0.00 0.00 64 1015.8
20260904200804 78 250 2.0 4.0 0.00 0.00 0.00 64 1015.8
20260904200405 78 237 2.0 5.0 0.00 0.00 0.00 64 1015.8
20260904200005 77 221 2.0 5.0 0.00 0.00 0.00 65 1015.8
20260904195604 77 230 3.0 5.0 0.00 0.00 0.00 64 1015.7
20260904195204 77 234 3.0 6.0 0.00 0.00 0.00 65 1015.8
20260904194803 77 239 3.0 6.0 0.00 0.00 0.00 66 1015.8
20260904194404 76 261 3.0 5.0 0.00 0.00 0.00 67 1015.8
20260904194004 76 295 3.0 4.0 0.00 0.00 0.00 68 1015.9
20260904193604 76 311 3.0 4.0 0.00 0.00 0.00 69 1015.8
20260904192804 77 280 3.0 6.0 0.00 0.00 0.00 65 1015.7
20260904192404 78 270 2.0 6.0 0.00 0.00 0.00 64 1015.6
20260904191604 78 212 5.0 9.0 0.00 0.00 0.00 64 1015.4
20260904191203 78 206 6.0 10.0 0.00 0.00 0.00 63 1015.3
20260904190004 78 201 7.0 10.0 0.00 0.00 0.00 63 1015.2
20260904185204 79 197 6.0 10.0 0.00 0.00 0.00 63 1015.0
20260904184804 79 201 6.0 10.0 0.00 0.00 0.00 63 1015.1
20260904184004 79 217 3.0 6.0 0.00 0.00 0.00 62 1015.0
20260904183604 79 218 4.0 8.0 0.00 0.00 0.00 62 1015.0
20260904182804 80 211 5.0 8.0 0.00 0.00 0.00 61 1015.0
20260904182404 80 209 6.0 9.0 0.00 0.00 0.00 62 1015.0
20260904182004 79 207 6.0 9.0 0.00 0.00 0.00 61 1014.9
20260904181604 80 205 6.0 9.0 0.00 0.00 0.00 62 1015.0
20260904181204 80 204 6.0 9.0 0.00 0.00 0.00 62 1015.0
20260904180804 80 202 5.0 9.0 0.00 0.00 0.00 61 1014.8
20260904175604 80 205 5.0 9.0 0.00 0.00 0.00 60 1014.7
20260904175203 81 210 4.0 9.0 0.00 0.00 0.00 60 1014.7
20260904174404 81 208 3.0 6.0 0.00 0.00 0.00 59 1014.7
20260904174004 81 204 3.0 6.0 0.00 0.00 0.00 59 1014.7
20260904173604 82 213 3.0 6.0 0.00 0.00 0.00 59 1014.6
20260904173204 82 216 3.0 6.0 0.00 0.00 0.00 59 1014.6
20260904172804 82 214 3.0 6.0 0.00 0.00 0.00 58 1014.6
20260904172404 83 211 4.0 6.0 0.00 0.00 0.00 56 1014.5
20260904172004 83 211 3.0 6.0 0.00 1.00 0.00 56 1014.3
20260904171604 83 218 3.0 5.0 0.00 1.00 0.00 56 1014.4
20260904170804 83 236 1.0 4.0 0.00 1.01 0.00 55 1014.3
20260904170404 84 251 0.0 3.0 0.00 1.01 0.00 54 1014.4
20260904170004 85 261 0.0 2.0 0.00 1.01 0.00 53 1014.4
20260904165604 85 260 0.0 2.0 0.00 1.01 0.00 52 1014.2
20260904165205 85 259 1.0 2.0 0.00 1.01 0.00 51 1014.3
20260904164804 85 273 1.0 4.0 0.00 1.01 0.00 51 1014.4
20260904164404 84 282 2.0 4.0 0.00 1.01 0.00 51 1014.4
20260904164004 84 283 2.0 4.0 0.00 1.01 0.00 51 1014.4
20260904163604 85 272 1.0 3.0 0.00 1.01 0.00 51 1014.4
20260904163204 85 292 1.0 3.0 0.00 1.01 0.00 51 1014.4
20260904162804 85 314 1.0 3.0 0.00 1.01 0.00 50 1014.4
20260904162404 85 293 1.0 3.0 0.00 1.01 0.00 50 1014.4
20260904162005 85 302 2.0 5.0 0.00 1.01 0.00 50 1014.4
20260904161605 86 350 2.0 5.0 0.00 1.01 0.00 49 1014.3
20260904161204 87 30 2.0 5.0 0.00 1.01 0.00 47 1014.3
20260904160803 87 61 3.0 7.0 0.00 1.01 0.00 47 1014.4
20260904160404 87 76 4.0 7.0 0.00 1.01 0.00 47 1014.4
20260904160004 87 89 4.0 7.0 0.00 1.01 0.00 47 1014.5
20260904155604 87 83 4.0 7.0 0.00 1.01 0.00 46 1014.6
20260904155204 87 72 3.0 7.0 0.00 1.01 0.00 46 1014.4
20260904154803 88 67 2.0 7.0 0.00 1.01 0.00 46 1014.5
20260904154404 88 87 2.0 8.0 0.00 1.01 0.00 47 1014.5
20260904154004 88 98 3.0 8.0 0.00 1.01 0.00 47 1014.5
20260904153604 88 94 3.0 8.0 0.00 1.01 0.00 47 1014.5
20260904153203 88 74 2.0 6.0 0.00 1.01 0.00 46 1014.6
20260904152804 88 68 2.0 6.0 0.00 1.01 0.00 45 1014.6
20260904152403 88 78 2.0 7.0 0.00 1.01 0.00 46 1014.6
20260904152004 88 91 3.0 9.0 0.00 1.01 0.00 45 1014.6
20260904151604 88 92 4.0 9.0 0.00 1.01 0.00 45 1014.6
20260904151204 88 95 5.0 8.0 0.00 1.01 0.00 45 1014.7
20260904150804 88 96 4.0 8.0 0.00 1.01 0.00 45 1014.8
20260904150403 88 93 4.0 9.0 0.00 1.01 0.00 45 1014.8
20260904150004 88 84 4.0 9.0 0.00 1.01 0.00 45 1014.7
20260904145604 88 86 5.0 8.0 0.00 1.01 0.00 45 1014.8
20260904144404 87 87 6.0 10.0 0.00 1.01 0.00 44 1014.8
20260904144004 88 89 5.0 11.0 0.00 1.01 0.00 44 1015.0
20260904143604 88 89 5.0 11.0 0.00 1.01 0.00 43 1014.9
20260904143204 88 85 5.0 11.0 0.00 1.01 0.00 42 1015.0
20260904142803 87 88 6.0 11.0 0.00 1.01 0.00 44 1015.1
20260904142404 87 86 7.0 11.0 0.00 1.01 0.00 43 1015.2
20260904142004 87 87 7.0 12.0 0.00 1.01 0.00 43 1015.1
20260904141604 87 87 7.0 12.0 0.00 1.01 0.00 42 1015.1
20260904140804 88 87 5.0 10.0 0.00 1.01 0.00 41 1015.1
20260904140404 87 90 6.0 11.0 0.00 1.01 0.00 42 1015.1
20260904140005 88 88 7.0 12.0 0.00 1.01 0.00 41 1015.1
20260904135604 87 83 7.0 12.0 0.00 1.01 0.00 43 1015.2
20260904134803 87 85 7.0 11.0 0.00 1.01 0.00 43 1015.3
20260904134404 87 86 7.0 11.0 0.00 1.01 0.00 44 1015.3
20260904133604 87 86 6.0 10.0 0.00 1.01 0.00 45 1015.2
20260904133204 87 90 5.0 10.0 0.00 1.01 0.00 45 1015.4
20260904132804 87 97 5.0 10.0 0.00 1.01 0.00 45 1015.4
20260904132404 87 94 5.0 10.0 0.00 1.01 0.00 43 1015.4